This demonstration page uses our WeatherBlox Daily Observations layout. Learn more.

Left ArrowRight Arrow

38.20091, -84.87328

Hourly Observations for June 2, 2021

Temp ( °F °C ) Dew Point ( °F °C ) Humidity (%) Winds ( mph kmh ) Pressure ( in mb ) Visibility ( mi km ) Precip ( " mm )
12:53 am 00:53 Mostly Cloudy 64 17.8 61 16.1 90 90 Calm 30.11 1020 10 16 0.01 0.25
1:53 am 01:53 Cloudy 65 18.3 59 15 81 81 Calm 30.09 1019 10 16 0.00 0.00
2:53 am 02:53 Cloudy with Light Rain 64 17.8 60 15.6 87 87 Calm 30.08 1019 10 16 0.04 1.02
3:53 am 03:53 Cloudy 64 17.8 61 16.1 90 90 SE 3 6 30.07 1018 10 16 0.01 0.25
4:53 am 04:53 Cloudy 64 17.8 61 16.1 90 90 SE 3 6 30.06 1018 10 16 0.00 0.00
5:53 am 05:53 Cloudy with Light Rain 64 17.8 61 16.1 90 90 SSE 7 11 30.05 1018 9 14 0.00 0.00
6:53 am 06:53 Mostly Cloudy with Light Rain 64 17.8 60 15.6 87 87 SSE 7 11 30.04 1017 8 13 0.02 0.51
7:53 am 07:53 Cloudy with Light Rain 64 17.8 61 16.1 90 90 SSE 9 15 30.04 1017 6 10 0.03 0.76
8:53 am 08:53 Cloudy 65 18.3 61 16.1 87 87 S 9 15 30.05 1018 10 16 0.01 0.25
9:53 am 09:53 Cloudy with Light Rain 66 18.9 61 16.1 84 84 S 12 19 30.04 1017 10 16 0.00 0.00
10:53 am 10:53 Cloudy with Light Rain 66 18.9 62 16.7 87 87 SSE 7 11 30.03 1017 10 16 0.02 0.51
11:53 am 11:53 Cloudy with Light Rain 67 19.4 62 16.7 84 84 S 12 19 30.04 1017 10 16 0.03 0.76
12:53 pm 12:53 Cloudy with Light Rain 68 20 63 17.2 84 84 SSE 7 11 30.02 1017 9 14 0.02 0.51
1:28 pm 13:28 Cloudy 68 20 63 17.2 84 84 SSE 6 9 30.01 1016 10 16 0.00 0.00
1:53 pm 13:53 Cloudy with Light Rain 68 20 63 17.2 84 84 S 15 24 30.01 1016 4 6 0.01 0.25
2:16 pm 14:16 Cloudy with Light Rain 68 20 63 17.2 84 84 S 9 15 30.00 1016 2 3 0.04 1.02
2:28 pm 14:28 Cloudy with Light Rain 67 19.4 63 17.2 87 87 SSE 10 17 29.99 1016 3 5 0.04 1.02
2:37 pm 14:37 Cloudy with Light Rain 67 19.4 63 17.2 87 87 SSE 12 19 29.99 1016 3 4 0.05 1.27
2:50 pm 14:50 Cloudy with Light Rain 66 19 63 17 88 88 SE 10 17 29.98 1015 4 6 0.06 1.52
2:53 pm 14:53 Cloudy with Light Rain 67 19.4 63 17.2 87 87 SE 9 15 29.98 1015 3 5 0.07 1.78
2:59 pm 14:59 Cloudy with Rain 67 19.4 63 17.2 87 87 SE 12 19 29.97 1015 2 3 0.01 0.25
3:05 pm 15:05 Cloudy with Rain 66 18.9 63 17.2 90 90 SSE 13 20 29.97 1015 2 2 0.02 0.51
3:31 pm 15:31 Cloudy with Rain 66 18.9 62 16.7 87 87 SSE 13 20 29.96 1015 2 2 0.07 1.78
3:51 pm 15:51 Cloudy with Light Rain 66 19 63 17 88 88 S 12 19 29.96 1015 3 4 0.09 2.29
3:53 pm 15:53 Cloudy with Light Rain 66 18.9 62 16.7 87 87 S 12 19 29.97 1015 3 5 0.09 2.29
4:05 pm 16:05 Cloudy 66 18.9 62 16.7 87 87 S 9 15 29.96 1015 9 14 0.00 0.00
4:53 pm 16:53 Cloudy with Light Rain 67 19.4 63 17.2 87 87 S 8 13 29.95 1014 8 13 0.01 0.25
5:53 pm 17:53 Cloudy 68 20 63 17.2 84 84 S 10 17 29.93 1014 10 16 0.00 0.00
6:25 pm 18:25 Cloudy 68 20 63 17.2 84 84 SSW 9 15 29.93 1014 9 14 0.00 0.00
6:45 pm 18:45 Cloudy with Haze 68 20 63 17.2 84 84 S 7 11 29.92 1013 5 8 0.00 0.00
6:53 pm 18:53 Cloudy 68 20 63 17.2 84 84 SSW 8 13 29.93 1014 7 11 0.00 0.00
7:53 pm 19:53 Cloudy 67 19.4 64 17.8 91 91 Calm 29.92 1013 10 16 0.00 0.00
8:53 pm 20:53 Cloudy 68 20 64 17.8 87 87 SSE 3 6 29.93 1013 10 16 0.00 0.00
9:53 pm 21:53 Cloudy 68 20 63 17.2 84 84 S 5 7 29.93 1014 10 16 0.00 0.00
10:53 pm 22:53 Cloudy 68 20 63 17.2 84 84 S 6 9 29.94 1014 10 16 0.00 0.00
11:53 pm 23:53 Mostly Cloudy 68 20 62 16.7 81 81 S 5 7 29.93 1014 10 16 0.00 0.00

Powered by AerisWeather